When you browse on this site, cookies collect data to enhance your experience and personalize the content and advertising you see.
Visit our Privacy Policy to learn more. By continuing to use the site, you agree to this use of cookies and data.
  • In Czech Republic
  • List of Countries
  • For 7 days
  • Water Temperature
  • Satellite Maps
  • Weather Map
  • Weather Widgets
  • user-avatar
    Login

    Hourly Weather Wellington

    Today, 20 July, Saturday

    Time Temperature Precipitation Wind Pressure Humidity
    00:00 +29°C° 0 mm 3 mps 762 mmHg 75%
    01:00 +29°C° 0 mm 3 mps 762 mmHg 76%
    02:00 +29°C° 0 mm 3 mps 761 mmHg 77%
    03:00 +29°C° 0 mm 3 mps 761 mmHg 77%
    04:00 +29°C° 0 mm 2 mps 761 mmHg 77%
    05:00 +29°C° 0 mm 2 mps 761 mmHg 77%
    06:00 +30°C° 0 mm 2 mps 762 mmHg 76%
    07:00 +30°C° 0 mm 2 mps 762 mmHg 75%
    08:00 +31°C° 0 mm 3 mps 762 mmHg 69%
    09:00 +33°C° 0 mm 3 mps 762 mmHg 64%
    10:00 +34°C° 0 mm 4 mps 763 mmHg 58%
    11:00 +35°C° 0 mm 4 mps 762 mmHg 56%
    12:00 +36°C° 0 mm 4 mps 762 mmHg 54%
    13:00 +36°C° 0 mm 4 mps 762 mmHg 52%
    14:00 +36°C° 0.1 mm 4 mps 762 mmHg 53%
    15:00 +36°C° 0.1 mm 4 mps 761 mmHg 53%
    16:00 +35°C° 0.1 mm 4 mps 761 mmHg 54%
    17:00 +34°C° 0.1 mm 4 mps 761 mmHg 58%
    18:00 +33°C° 0.1 mm 4 mps 761 mmHg 63%
    19:00 +31°C° 0.1 mm 3 mps 761 mmHg 67%
    20:00 +31°C° 0 mm 3 mps 761 mmHg 70%
    21:00 +30°C° 0 mm 3 mps 762 mmHg 72%
    22:00 +30°C° 0 mm 3 mps 762 mmHg 74%
    23:00 +30°C° 0 mm 3 mps 762 mmHg 74%

    Tomorrow, 21 July, Sunday

    Time Temperature Precipitation Wind Pressure Humidity
    00:00 +30°C° 0 mm 3 mps 762 mmHg 74%
    01:00 +30°C° 0 mm 3 mps 761 mmHg 74%
    02:00 +30°C° 0 mm 3 mps 761 mmHg 74%
    03:00 +29°C° 0 mm 3 mps 761 mmHg 74%
    04:00 +29°C° 0 mm 3 mps 761 mmHg 74%
    05:00 +30°C° 0 mm 3 mps 761 mmHg 74%
    06:00 +30°C° 0 mm 3 mps 761 mmHg 73%
    07:00 +30°C° 0 mm 3 mps 762 mmHg 73%
    08:00 +31°C° 0 mm 3 mps 762 mmHg 68%
    09:00 +33°C° 0 mm 4 mps 762 mmHg 62%
    10:00 +35°C° 0 mm 4 mps 762 mmHg 57%
    11:00 +35°C° 0 mm 4 mps 762 mmHg 55%
    12:00 +35°C° 0 mm 4 mps 762 mmHg 53%
    13:00 +36°C° 0 mm 4 mps 762 mmHg 51%
    14:00 +36°C° 0 mm 4 mps 762 mmHg 52%
    15:00 +35°C° 0 mm 4 mps 761 mmHg 53%
    16:00 +35°C° 0 mm 4 mps 761 mmHg 54%
    17:00 +34°C° 0.1 mm 3 mps 761 mmHg 57%
    18:00 +33°C° 0.1 mm 3 mps 761 mmHg 61%
    19:00 +31°C° 0.1 mm 3 mps 761 mmHg 64%
    20:00 +31°C° 0 mm 3 mps 761 mmHg 66%
    21:00 +30°C° 0 mm 3 mps 762 mmHg 67%
    22:00 +30°C° 0 mm 3 mps 762 mmHg 68%
    23:00 +30°C° 0 mm 2 mps 761 mmHg 70%

    Day after tomorrow, 22 July, Monday

    Time Temperature Precipitation Wind Pressure Humidity
    00:00 +29°C° 0 mm 2 mps 761 mmHg 71%
    01:00 +29°C° 0 mm 2 mps 761 mmHg 73%
    02:00 +29°C° 0 mm 2 mps 761 mmHg 74%
    03:00 +29°C° 0 mm 2 mps 760 mmHg 74%
    04:00 +29°C° 0 mm 1 mps 760 mmHg 75%
    05:00 +29°C° 0 mm 1 mps 761 mmHg 74%
    06:00 +30°C° 0 mm 1 mps 761 mmHg 73%
    07:00 +30°C° 0 mm 1 mps 761 mmHg 71%
    08:00 +31°C° 0.3 mm 1 mps 761 mmHg 68%
    09:00 +32°C° 0.3 mm 2 mps 761 mmHg 64%
    10:00 +34°C° 0.3 mm 2 mps 762 mmHg 60%
    11:00 +34°C° 1.2 mm 2 mps 762 mmHg 60%
    12:00 +34°C° 1.2 mm 2 mps 761 mmHg 59%
    13:00 +35°C° 1.2 mm 2 mps 761 mmHg 58%
    14:00 +34°C° 2.2 mm 2 mps 761 mmHg 60%
    15:00 +34°C° 2.2 mm 2 mps 760 mmHg 62%
    16:00 +34°C° 2.2 mm 2 mps 760 mmHg 63%
    17:00 +32°C° 1.1 mm 2 mps 760 mmHg 66%
    18:00 +31°C° 1.1 mm 2 mps 760 mmHg 68%
    19:00 +31°C° 1.1 mm 2 mps 760 mmHg 70%
    20:00 +30°C° 0.1 mm 2 mps 760 mmHg 71%
    21:00 +30°C° 0.1 mm 2 mps 761 mmHg 72%
    22:00 +30°C° 0.1 mm 2 mps 761 mmHg 73%
    23:00 +30°C° 0 mm 2 mps 760 mmHg 74%

    23 July, Tuesday

    Time Temperature Precipitation Wind Pressure Humidity
    00:00 +29°C° 0 mm 3 mps 760 mmHg 74%
    01:00 +29°C° 0 mm 3 mps 760 mmHg 75%
    02:00 +29°C° 0.1 mm 2 mps 760 mmHg 76%
    03:00 +29°C° 0.1 mm 2 mps 760 mmHg 77%
    04:00 +28°C° 0.1 mm 1 mps 759 mmHg 78%
    05:00 +29°C° 0.3 mm 1 mps 760 mmHg 77%
    06:00 +29°C° 0.3 mm 1 mps 760 mmHg 76%
    07:00 +29°C° 0.3 mm 1 mps 760 mmHg 75%
    08:00 +31°C° 0 mm 1 mps 761 mmHg 69%
    09:00 +32°C° 0 mm 2 mps 761 mmHg 63%
    10:00 +35°C° 0 mm 2 mps 761 mmHg 57%
    11:00 +35°C° 0.1 mm 2 mps 761 mmHg 54%
    12:00 +36°C° 0.1 mm 2 mps 761 mmHg 52%
    13:00 +37°C° 0.1 mm 3 mps 761 mmHg 50%
    14:00 +36°C° 0.4 mm 3 mps 760 mmHg 51%
    15:00 +36°C° 0.4 mm 3 mps 760 mmHg 53%
    16:00 +35°C° 0.4 mm 3 mps 759 mmHg 55%
    17:00 +34°C° 0.5 mm 3 mps 760 mmHg 59%
    18:00 +33°C° 0.5 mm 3 mps 760 mmHg 62%
    19:00 +33°C° 0.5 mm 3 mps 760 mmHg 65%
    20:00 +31°C° 0.6 mm 3 mps 760 mmHg 68%
    21:00 +30°C° 0.6 mm 3 mps 761 mmHg 71%
    22:00 +30°C° 0.6 mm 3 mps 761 mmHg 73%
    23:00 +30°C° 0.3 mm 3 mps 761 mmHg 74%

    24 July, Wednesday

    Time Temperature Precipitation Wind Pressure Humidity
    00:00 +29°C° 0.3 mm 2 mps 760 mmHg 76%
    01:00 +29°C° 0.3 mm 2 mps 760 mmHg 77%
    02:00 +29°C° 0 mm 2 mps 760 mmHg 77%
    03:00 +29°C° 0 mm 2 mps 760 mmHg 78%
    04:00 +29°C° 0 mm 2 mps 760 mmHg 78%
    05:00 +29°C° 0 mm 2 mps 760 mmHg 78%
    06:00 +29°C° 0 mm 2 mps 760 mmHg 77%
    07:00 +29°C° 0 mm 2 mps 761 mmHg 76%
    08:00 +31°C° 0.2 mm 2 mps 761 mmHg 71%
    09:00 +32°C° 0.2 mm 2 mps 761 mmHg 65%
    10:00 +34°C° 0.2 mm 2 mps 761 mmHg 60%
    11:00 +35°C° 0.6 mm 2 mps 761 mmHg 58%
    12:00 +36°C° 0.6 mm 2 mps 761 mmHg 56%
    13:00 +36°C° 0.6 mm 2 mps 760 mmHg 53%
    14:00 +36°C° 1.8 mm 3 mps 760 mmHg 56%
    15:00 +35°C° 1.8 mm 3 mps 760 mmHg 59%
    16:00 +34°C° 1.8 mm 4 mps 760 mmHg 62%
    17:00 +32°C° 8.5 mm 4 mps 760 mmHg 69%
    18:00 +29°C° 8.5 mm 5 mps 760 mmHg 76%
    19:00 +27°C° 8.5 mm 6 mps 760 mmHg 83%
    20:00 +28°C° 1.9 mm 4 mps 761 mmHg 80%
    21:00 +28°C° 1.9 mm 3 mps 761 mmHg 76%
    22:00 +28°C° 1.9 mm 1 mps 761 mmHg 72%
    23:00 +28°C° 0 mm 1 mps 761 mmHg 72%

    25 July, Thursday

    Time Temperature Precipitation Wind Pressure Humidity
    00:00 +28°C° 0 mm 1 mps 761 mmHg 72%
    01:00 +29°C° 0 mm 1 mps 760 mmHg 72%
    02:00 +28°C° 0.1 mm 1 mps 760 mmHg 73%
    03:00 +28°C° 0.1 mm 1 mps 760 mmHg 74%
    04:00 +28°C° 0.1 mm 1 mps 760 mmHg 76%
    05:00 +28°C° 0 mm 1 mps 761 mmHg 75%
    06:00 +29°C° 0 mm 1 mps 761 mmHg 74%
    07:00 +27°C° 0 mm 0 mps 761 mmHg 73%
    08:00 +31°C° 0 mm 1 mps 762 mmHg 68%
    09:00 +32°C° 0 mm 1 mps 762 mmHg 63%
    10:00 +35°C° 0 mm 2 mps 762 mmHg 58%
    11:00 +35°C° 0.3 mm 2 mps 762 mmHg 56%
    12:00 +36°C° 0.3 mm 2 mps 762 mmHg 54%
    13:00 +37°C° 0.3 mm 2 mps 762 mmHg 52%
    14:00 +36°C° 2.1 mm 2 mps 761 mmHg 54%
    15:00 +35°C° 2.1 mm 2 mps 761 mmHg 57%
    16:00 +34°C° 2.1 mm 2 mps 761 mmHg 59%
    17:00 +34°C° 1 mm 2 mps 761 mmHg 61%
    18:00 +32°C° 1 mm 2 mps 761 mmHg 64%
    19:00 +31°C° 1 mm 2 mps 762 mmHg 66%
    20:00 +31°C° 0.7 mm 3 mps 762 mmHg 68%
    21:00 +31°C° 0.7 mm 3 mps 762 mmHg 69%
    22:00 +30°C° 0.7 mm 3 mps 763 mmHg 70%
    23:00 +30°C° 0.2 mm 3 mps 762 mmHg 73%
    Show more